Previsão horária em Pleseni

Hoje, 5 Março, Sexta-feira

Tempo Temperatura Precipitação Vento Pressão Humidade
00:00 +9°C° 0 mm 2 m/s 753 mmHg 50%
01:00 +9°C° 0 mm 2 m/s 753 mmHg 51%
02:00 +8°C° 0 mm 2 m/s 753 mmHg 51%
03:00 +8°C° 0 mm 2 m/s 753 mmHg 55%
04:00 +7°C° 0 mm 2 m/s 753 mmHg 58%
05:00 +7°C° 0 mm 2 m/s 753 mmHg 61%
06:00 +8°C° 0 mm 1 m/s 753 mmHg 64%
07:00 +8°C° 0 mm 1 m/s 753 mmHg 67%
08:00 +8°C° 0 mm 1 m/s 753 mmHg 69%
09:00 +10°C° 0 mm 1 m/s 753 mmHg 64%
10:00 +10°C° 0 mm 2 m/s 753 mmHg 59%
11:00 +13°C° 0 mm 2 m/s 753 mmHg 54%
12:00 +13°C° 0 mm 3 m/s 753 mmHg 49%
13:00 +14°C° 0 mm 3 m/s 752 mmHg 44%
14:00 +15°C° 0 mm 4 m/s 752 mmHg 38%
15:00 +15°C° 0 mm 4 m/s 752 mmHg 39%
16:00 +16°C° 0 mm 3 m/s 752 mmHg 40%
17:00 +14°C° 0 mm 3 m/s 751 mmHg 41%
18:00 +13°C° 0 mm 4 m/s 752 mmHg 44%
19:00 +12°C° 0 mm 4 m/s 752 mmHg 48%
20:00 +10°C° 0 mm 5 m/s 753 mmHg 51%
21:00 +9°C° 0 mm 6 m/s 753 mmHg 61%
22:00 +7°C° 0 mm 6 m/s 754 mmHg 71%
23:00 +5°C° 0 mm 7 m/s 754 mmHg 82%

Amanhã, 6 Março, Sábado

Tempo Temperatura Precipitação Vento Pressão Humidade
00:00 +4°C° 0 mm 7 m/s 755 mmHg 80%
01:00 +2°C° 0 mm 8 m/s 756 mmHg 78%
02:00 +2°C° 0 mm 8 m/s 757 mmHg 76%
03:00 +1°C° 0 mm 8 m/s 758 mmHg 77%
04:00 0°C° 0 mm 8 m/s 758 mmHg 78%
05:00 0°C° 0 mm 8 m/s 759 mmHg 79%
06:00 -1°C° 0 mm 7 m/s 760 mmHg 75%
07:00 -1°C° 0 mm 7 m/s 761 mmHg 71%
08:00 -1°C° 0 mm 7 m/s 762 mmHg 67%
09:00 -1°C° 0 mm 7 m/s 762 mmHg 59%
10:00 0°C° 0 mm 7 m/s 763 mmHg 51%
11:00 +2°C° 0 mm 7 m/s 763 mmHg 43%
12:00 +2°C° 0 mm 7 m/s 764 mmHg 41%
13:00 +3°C° 0 mm 7 m/s 764 mmHg 38%
14:00 +3°C° 0 mm 7 m/s 764 mmHg 35%
15:00 +3°C° 0 mm 6 m/s 764 mmHg 34%
16:00 +3°C° 0 mm 6 m/s 764 mmHg 33%
17:00 +2°C° 0 mm 5 m/s 764 mmHg 32%
18:00 +1°C° 0 mm 4 m/s 765 mmHg 36%
19:00 +2°C° 0 mm 3 m/s 765 mmHg 41%
20:00 +3°C° 0 mm 1 m/s 766 mmHg 45%
21:00 +3°C° 0 mm 1 m/s 766 mmHg 47%
22:00 +2°C° 0 mm 1 m/s 766 mmHg 49%
23:00 +2°C° 0 mm 1 m/s 767 mmHg 50%

Depois de amanhã, 7 Março, Domingo

Tempo Temperatura Precipitação Vento Pressão Humidade
00:00 +2°C° 0 mm 1 m/s 767 mmHg 53%
01:00 -1°C° 0 mm 2 m/s 767 mmHg 56%
02:00 -1°C° 0 mm 2 m/s 767 mmHg 58%
03:00 +1°C° 0 mm 1 m/s 766 mmHg 59%
04:00 +1°C° 0 mm 1 m/s 766 mmHg 60%
05:00 +1°C° 0 mm 1 m/s 766 mmHg 61%
06:00 +1°C° 0 mm 1 m/s 765 mmHg 58%
07:00 +1°C° 0 mm 2 m/s 765 mmHg 56%
08:00 0°C° 0 mm 3 m/s 765 mmHg 53%
09:00 +1°C° 0 mm 4 m/s 765 mmHg 48%
10:00 +3°C° 0 mm 4 m/s 764 mmHg 43%
11:00 +3°C° 0 mm 5 m/s 764 mmHg 37%
12:00 +5°C° 0 mm 5 m/s 763 mmHg 35%
13:00 +6°C° 0 mm 5 m/s 762 mmHg 32%
14:00 +7°C° 0 mm 4 m/s 761 mmHg 29%
15:00 +7°C° 0 mm 4 m/s 761 mmHg 29%
16:00 +8°C° 0 mm 3 m/s 760 mmHg 30%
17:00 +8°C° 0 mm 3 m/s 759 mmHg 30%
18:00 +5°C° 0 mm 3 m/s 759 mmHg 35%
19:00 +4°C° 0 mm 3 m/s 759 mmHg 40%
20:00 +3°C° 0 mm 3 m/s 759 mmHg 44%
21:00 +3°C° 0 mm 3 m/s 759 mmHg 49%
22:00 +2°C° 0 mm 3 m/s 759 mmHg 53%
23:00 +3°C° 0 mm 2 m/s 758 mmHg 57%

8 Março, Segunda-feira

Tempo Temperatura Precipitação Vento Pressão Humidade
00:00 +2°C° 0 mm 2 m/s 758 mmHg 57%
01:00 +2°C° 0 mm 2 m/s 758 mmHg 58%
02:00 +3°C° 0 mm 1 m/s 757 mmHg 58%
03:00 +2°C° 0 mm 1 m/s 757 mmHg 58%
04:00 +2°C° 0 mm 1 m/s 757 mmHg 57%
05:00 +1°C° 0 mm 0 m/s 756 mmHg 56%
06:00 +2°C° 0 mm 0 m/s 756 mmHg 54%
07:00 +2°C° 0 mm 0 m/s 756 mmHg 52%
08:00 +3°C° 0 mm 0 m/s 756 mmHg 49%
09:00 +5°C° 0 mm 1 m/s 756 mmHg 45%
10:00 +6°C° 0 mm 1 m/s 755 mmHg 42%
11:00 +7°C° 0 mm 2 m/s 755 mmHg 38%
12:00 +8°C° 0 mm 2 m/s 755 mmHg 35%
13:00 +8°C° 0 mm 2 m/s 754 mmHg 32%
14:00 +9°C° 0 mm 3 m/s 754 mmHg 29%
15:00 +9°C° 0 mm 2 m/s 754 mmHg 29%
16:00 +9°C° 0 mm 2 m/s 753 mmHg 29%
17:00 +9°C° 0 mm 2 m/s 753 mmHg 29%
18:00 +8°C° 0 mm 2 m/s 753 mmHg 33%
19:00 +7°C° 0 mm 2 m/s 754 mmHg 36%
20:00 +6°C° 0 mm 1 m/s 754 mmHg 40%
21:00 +5°C° 0 mm 2 m/s 754 mmHg 43%
22:00 +3°C° 0 mm 3 m/s 755 mmHg 47%
23:00 +3°C° 0 mm 4 m/s 755 mmHg 51%

9 Março, Terça-feira

Tempo Temperatura Precipitação Vento Pressão Humidade
00:00 +1°C° 0 mm 4 m/s 756 mmHg 62%
01:00 +1°C° 0 mm 5 m/s 756 mmHg 72%
02:00 -1°C° 0 mm 6 m/s 756 mmHg 83%
03:00 -2°C° 0 mm 6 m/s 757 mmHg 81%
04:00 -2°C° 0 mm 7 m/s 757 mmHg 79%
05:00 -3°C° 0 mm 7 m/s 758 mmHg 76%
06:00 -3°C° 0 mm 7 m/s 758 mmHg 72%
07:00 -3°C° 0 mm 6 m/s 759 mmHg 68%
08:00 -3°C° 0 mm 6 m/s 759 mmHg 64%
09:00 -2°C° 0 mm 6 m/s 759 mmHg 58%
10:00 -1°C° 0 mm 6 m/s 760 mmHg 52%
11:00 +1°C° 0 mm 6 m/s 760 mmHg 46%
12:00 +2°C° 0 mm 6 m/s 760 mmHg 44%
13:00 +2°C° 0 mm 6 m/s 760 mmHg 42%
14:00 +2°C° 0 mm 6 m/s 760 mmHg 40%
15:00 +2°C° 0 mm 5 m/s 760 mmHg 41%
16:00 +2°C° 0 mm 5 m/s 760 mmHg 41%
17:00 +1°C° 0 mm 5 m/s 760 mmHg 42%
18:00 +1°C° 0 mm 5 m/s 760 mmHg 45%
19:00 0°C° 0 mm 4 m/s 761 mmHg 49%
20:00 0°C° 0 mm 3 m/s 762 mmHg 53%
21:00 -1°C° 0 mm 3 m/s 762 mmHg 53%
22:00 -1°C° 0 mm 3 m/s 762 mmHg 54%
23:00 -2°C° 0 mm 3 m/s 763 mmHg 55%

10 Março, Quarta-feira

Tempo Temperatura Precipitação Vento Pressão Humidade
00:00 -2°C° 0 mm 3 m/s 763 mmHg 57%
01:00 -2°C° 0 mm 3 m/s 763 mmHg 58%
02:00 -2°C° 0 mm 2 m/s 764 mmHg 60%
03:00 -2°C° 0 mm 2 m/s 764 mmHg 60%
04:00 -4°C° 0 mm 3 m/s 764 mmHg 61%
05:00 -4°C° 0 mm 3 m/s 764 mmHg 61%
06:00 -4°C° 0 mm 3 m/s 765 mmHg 60%
07:00 -4°C° 0 mm 4 m/s 765 mmHg 59%
08:00 -4°C° 0 mm 4 m/s 766 mmHg 58%
09:00 -3°C° 0 mm 4 m/s 766 mmHg 54%
10:00 -3°C° 0 mm 4 m/s 766 mmHg 50%
11:00 -2°C° 0 mm 4 m/s 767 mmHg 45%
12:00 -2°C° 0 mm 4 m/s 767 mmHg 41%
13:00 -1°C° 0 mm 4 m/s 767 mmHg 37%
14:00 -1°C° 0 mm 4 m/s 767 mmHg 33%
15:00 -1°C° 0 mm 4 m/s 766 mmHg 32%
16:00 -1°C° 0 mm 3 m/s 766 mmHg 31%
17:00 -1°C° 0 mm 3 m/s 766 mmHg 31%
18:00 -2°C° 0 mm 3 m/s 766 mmHg 35%
19:00 -2°C° 0 mm 3 m/s 766 mmHg 39%
20:00 -3°C° 0 mm 2 m/s 767 mmHg 43%
21:00 -3°C° 0 mm 2 m/s 767 mmHg 43%
22:00 -3°C° 0 mm 2 m/s 767 mmHg 44%
23:00 -2°C° 0 mm 1 m/s 768 mmHg 45%
Mostrar mais

Necessitamos do seu Consentimento

A Meteoprog e os seus Fornecedores de Serviços podem armazenar e aceder a dados pessoais como cookies, identificadores do dispositivo ou outras tecnologias semelhantes existentes no seu dispositivo e processar estes dados para personalizar conteúdos e anúncios, assim como funcionalidades nas redes sociais e análise de tráfego.

  • Armazenar e/ou aceder a informações no seu dispositivo

    Os cookies, identificadores do dispositivo ou outras informações podem ser armazenados ou acedidos no seu dispositivo, para os fins acima indicados.

  • Anúncios e conteúdos personalizados, medição de anúncios e conteúdos, dados sobre o público-alvo e desenvolvimento de produtos

    Os anúncios e os conteúdos podem ser personalizados com base num perfil. Podem ser adicionados dados adicionais para uma maior personalização dos anúncios e dos conteúdos. A eficácia dos anúncios e dos conteúdos pode ser medida. Podem ser obtidas informações sobre o público que visualizou os anúncios e os conteúdos. Estes dados podem ser usados para desenvolver ou melhorar sistemas, softwares ou a experiência do utilizador.

Ao clicar em "Eu concordo”, permitirá o uso de cookies, identificadores do dispositivo e web beacons mencionados ou outras tecnologias semelhantes. As configurações do navegador do seu dispositivo podem ser alteradas.

Para certos fins, podem ser invocados interesses legítimos ao invés de consentimento. Pode ler mais informação sobre este assunto na nossa Política de Privacidade e Cookies.